Zurück zum Katalog

CZ-4B DEB

AktivSSO
NORAD 38326·DEBRIS·🇨🇳 China

Gestartet Oct 6, 2010 von Taiyuan Satellite Launch Center

Loading…

Nächste Überflüge (nächste 24 Stunden)

TLE

AktuellSource: Space-Track

Epoche: Sep 14, 2026, 14:49 UTC

1 38326U 10051H   26257.61766594  .00004441  00000-0  46013-3 0  9995
2 38326  97.6852 312.6212 0106480 307.7616  51.3990 14.86386110835255

Verfolge CZ-4B DEB in Echtzeit mit AllMySat

Download on the App Store